Stations météo

Publicité
Berus, Allemagne (10704): Température de l'air & dewpoint: 21.06.2019 12:00:00 - 27.06.2019 12:00:00 (CEST)Berus, Allemagne (10704): Température de l'air 5cm & Température de l'air -5cm: 21.06.2019 12:00:00 - 27.06.2019 12:00:00 (CEST)Berus, Allemagne (10704): Température de l'air -20cm & Température de l'air -100cm: 21.06.2019 12:00:00 - 27.06.2019 12:00:00 (CEST)Berus, Allemagne (10704): Vitesse du vent & gusts: 21.06.2019 12:00:00 - 27.06.2019 12:00:00 (CEST)Berus, Allemagne (10704): Direction du vent: 21.06.2019 12:00:00 - 27.06.2019 12:00:00 (CEST)Berus, Allemagne (10704): reduced air pressure: 21.06.2019 12:00:00 - 27.06.2019 12:00:00 (CEST)Berus, Allemagne (10704): visibility: 21.06.2019 12:00:00 - 27.06.2019 12:00:00 (CEST)Berus, Allemagne (10704): Ensoleillement: 21.06.2019 12:00:00 - 27.06.2019 12:00:00 (CEST)Berus, Allemagne (10704): Quantités de précipitations: 21.06.2019 12:00:00 - 27.06.2019 12:00:00 (CEST)
Date & Time tt [°C] td [°C] tt 5cm [°C] tt -5cm [°C] tt -20cm [°C] tt -100cm [°C] ff [km/h] ff [knt] fx [km/h] fx [knt] dd ppp [hPa] vv [km] sd [min] rr [mm]
27.06.2019 12:00:00 28,0 17,0 36,8 32,0 26,7 18,5 17 9 27 15 NE 1023,2 38 60 0,0
27.06.2019 11:00:00 26,6 17,9 34,8 30,0 26,5 18,5 16 8 29 16 NE 1023,5 41 60 0,0
27.06.2019 10:00:00 24,7 17,6 30,4 28,1 26,4 18,5 22 12 33 18 NE 1023,5 38 60 0,0
27.06.2019 09:00:00 23,9 17,7 28,8 26,5 26,5 18,5 21 11 35 19 NE 1023,5 29 60 0,0
27.06.2019 08:00:00 22,7 17,9 25,8 25,5 26,7 18,4 21 11 29 16 NE 1023,3 28 60 0,0
27.06.2019 07:00:00 22,0 17,7 22,7 25,3 27,0 18,4 21 11 28 15 NE 1023,1 27 37 0,0
27.06.2019 06:00:00 21,7 17,6 20,9 25,6 27,4 18,4 20 11 28 15 NE 1022,7 25 0 0,0
27.06.2019 05:00:00 22,4 17,4 21,5 26,1 27,7 18,4 21 12 32 17 NE 1022,6 27 0 0,0
27.06.2019 04:00:00 23,2 17,2 22,0 26,6 28,0 18,4 23 12 31 17 NE 1022,4 31 0 0,0
27.06.2019 03:00:00 23,3 16,8 22,2 27,2 28,4 18,4 19 10 25 13 NE 1022,4 33 0 0,0
27.06.2019 02:00:00 24,0 16,6 22,8 27,9 28,7 18,3 19 11 29 16 NNE 1022,3 36 0 0,0
27.06.2019 01:00:00 24,8 16,5 23,7 28,7 29,1 18,3 22 12 36 20 NNE 1022,1 42 0 0,0
27.06.2019 00:00:00 26,2 17,4 25,1 29,6 29,4 18,3 26 14 36 20 NNE 1021,5 35 0 0,0
26.06.2019 23:00:00 27,9 18,0 26,1 30,6 29,7 18,3 16 9 24 13 NNE 1020,7 38 0 0,0
26.06.2019 22:00:00 29,7 17,3 25,4 32,1 29,9 18,3 8 5 13 7 NE 1020,1 43 0 0,0
26.06.2019 21:00:00 30,4 17,2 27,8 33,8 30,0 18,2 7 4 11 6 NE 1019,8 42 54 0,0
26.06.2019 20:00:00 32,8 16,1 34,6 35,4 29,9 18,2 10 5 18 10 NE 1019,4 40 60 0,0
26.06.2019 19:00:00 34,1 15,5 38,6 36,7 29,6 18,2 9 5 16 8 NE 1019,3 44 60 0,0
26.06.2019 18:00:00 34,6 14,7 40,1 37,5 29,1 18,2 9 5 19 10 NE 1019,5 46 60 0,0
26.06.2019 17:00:00 35,3 15,5 42,4 37,8 28,5 18,2 7 4 15 8 NNE 1019,8 38 60 0,0
26.06.2019 16:00:00 34,6 14,5 42,8 37,5 27,9 18,2 9 5 19 10 NE 1020,3 55 60 0,0
26.06.2019 15:00:00 34,2 14,7 43,1 36,7 27,2 18,1 8 4 20 11 NNE 1020,7 39 60 0,0
26.06.2019 14:00:00 33,1 14,9 43,0 35,6 26,5 18,1 5 3 19 11 SE 1021,6 36 60 0,0
26.06.2019 13:00:00 33,0 17,1 40,1 34,0 25,8 18,1 7 4 15 8 SE 1021,6 39 60 0,0
26.06.2019 12:00:00 30,7 17,1 38,1 31,9 25,3 18,1 5 3 11 6 ESE 1022,2 35 60 0,0
26.06.2019 11:00:00 28,8 18,0 35,8 29,5 25,0 18,1 6 3 16 9 ESE 1022,0 44 60 0,0
26.06.2019 10:00:00 26,3 17,0 33,4 27,2 24,8 18,1 12 7 16 9 NE 1022,1 37 60 0,0
26.06.2019 09:00:00 24,1 17,3 31,4 25,3 24,9 18,0 9 5 11 6 NNE 1022,1 37 60 0,0
26.06.2019 08:00:00 22,9 16,5 27,7 23,7 25,1 18,0 5 3 11 6 NNE 1022,1 31 60 0,0
26.06.2019 07:00:00 20,9 16,4 21,6 23,3 25,4 18,0 8 4 9 5 NNE 1022,1 34 52 0,0
26.06.2019 06:00:00 21,1 16,2 18,8 23,6 25,7 18,0 6 4 8 4 NE 1021,6 28 0 0,0
26.06.2019 05:00:00 21,7 16,2 18,5 24,0 26,0 18,0 5 3 6 4 NNE 1021,3 25 0 0,0
26.06.2019 04:00:00 22,2 16,6 17,6 24,5 26,3 18,0 4 2 6 4 NNE 1021,1 31 0 0,0
26.06.2019 03:00:00 22,7 16,1 17,6 25,1 26,7 18,0 4 2 5 3 NNE 1020,9 45 0 0,0
26.06.2019 02:00:00 23,0 16,3 17,9 25,8 27,0 18,0 0 0 6 3 N 1020,8 56 0 0,0
26.06.2019 01:00:00 24,2 15,9 19,1 26,6 27,4 17,9 4 2 14 7 NNE 1020,6 56 0 0,0
26.06.2019 00:00:00 24,6 15,9 22,0 27,5 27,7 17,9 10 5 19 10 W 1020,2 58 0 0,0
25.06.2019 23:00:00 25,3 15,7 23,4 28,5 27,9 17,9 13 7 21 12 WSW 1019,6 74 0 0,0
25.06.2019 22:00:00 26,1 15,3 24,1 29,7 28,1 17,9 13 7 20 11 SW 1019,1 65 13 0,0
25.06.2019 21:00:00 27,5 14,4 26,4 31,1 28,2 17,9 12 6 16 9 SSW 1018,4 55 20 0,0
25.06.2019 20:00:00 28,5 14,0 28,7 32,5 28,2 17,8 10 5 21 11 WSW 1018,0 29 26 0,0
25.06.2019 19:00:00 31,0 11,6 33,4 33,9 27,9 17,8 17 9 30 16 SSW 1017,5 64 60 0,0
25.06.2019 18:00:00 31,8 11,1 35,9 34,4 27,6 17,8 20 11 31 17 SSW 1017,3 43 60 0,0
25.06.2019 17:00:00 31,2 14,1 34,5 34,7 27,2 17,8 20 11 37 20 SW 1017,5 70 55 0,0
25.06.2019 16:00:00 32,5 12,8 37,4 34,9 26,7 17,8 24 13 42 23 SSW 1017,2 35 60 0,0
25.06.2019 15:00:00 32,4 12,1 37,7 34,7 26,0 17,8 28 15 45 24 SSW 1017,1 61 60 0,0
25.06.2019 14:00:00 32,5 14,8 39,1 33,9 25,4 17,8 22 12 36 19 SSW 1017,1 55 60 0,0
25.06.2019 13:00:00 30,6 15,3 36,8 32,4 24,8 17,7 16 9 36 19 S 1017,3 63 60 0,0
25.06.2019 12:00:00 29,0 17,1 35,5 30,4 24,3 17,7 11 6 22 12 S 1017,6 53 60 0,0
25.06.2019 11:00:00 27,4 17,9 34,2 28,1 24,0 17,7 6 4 13 7 S 1017,7 66 60 0,0
25.06.2019 10:00:00 24,3 17,2 28,7 26,2 23,9 17,7 6 3 18 10 SE 1017,9 56 60 0,0
25.06.2019 09:00:00 22,7 15,9 27,6 24,3 24,0 17,7 10 6 16 9 ENE 1017,9 40 60 0,0
25.06.2019 08:00:00 21,9 15,6 25,2 22,9 24,2 17,7 9 5 14 8 ENE 1017,7 49 60 0,0
25.06.2019 07:00:00 20,2 15,3 20,3 22,6 24,5 17,7 11 6 17 9 NE 1017,3 68 29 0,0
25.06.2019 06:00:00 19,9 15,4 18,2 22,8 24,8 17,7 12 7 18 10 NE 1017,0 54 0 0,0
25.06.2019 05:00:00 20,4 15,6 18,2 23,4 25,1 17,7 11 6 15 8 NE 1016,8 53 0 0,0
25.06.2019 04:00:00 21,0 16,0 18,8 23,9 25,4 17,7 11 6 18 10 NE 1016,6 49 0 0,0
25.06.2019 03:00:00 21,6 16,2 19,8 24,5 25,7 17,7 14 8 19 11 NE 1016,6 64 0 0,0
25.06.2019 02:00:00 22,3 16,4 20,1 25,1 26,1 17,7 13 7 19 11 NE 1016,7 65 0 0,0
25.06.2019 01:00:00 23,0 16,3 21,2 25,9 26,4 17,7 14 7 19 11 NE 1016,8 66 0 0,0
25.06.2019 00:00:00 23,7 16,4 21,7 26,8 26,7 17,6 13 7 18 10 NE 1016,8 52 0 0,0
24.06.2019 23:00:00 24,7 16,5 22,8 27,8 27,0 17,6 12 6 19 10 NE 1016,9 57 0 0,0
24.06.2019 22:00:00 26,0 16,1 24,5 29,1 27,2 17,6 9 5 21 11 ENE 1016,7 69 15 0,0
24.06.2019 21:00:00 27,3 16,1 26,4 30,7 27,2 17,6 11 6 23 13 ENE 1016,2 75 60 0,0
24.06.2019 20:00:00 28,7 15,8 30,9 32,3 27,1 17,6 11 6 24 13 ENE 1015,9 52 60 0,0
24.06.2019 19:00:00 29,7 15,0 33,6 33,6 26,8 17,6 8 4 21 12 E 1015,8 75 60 0,0
24.06.2019 18:00:00 29,9 14,4 35,7 34,3 26,3 17,6 8 4 19 10 ESE 1016,1 75 60 0,0
24.06.2019 17:00:00 29,8 14,8 37,5 34,6 25,7 17,6 10 5 21 12 E 1016,1 75 60 0,0
24.06.2019 16:00:00 29,6 15,1 37,7 34,4 25,1 17,6 9 5 19 10 ENE 1016,4 70 60 0,0
24.06.2019 15:00:00 28,7 14,9 34,9 33,5 24,4 17,6 9 5 22 12 E 1016,6 51 60 0,0
24.06.2019 14:00:00 28,8 15,2 36,7 32,8 23,7 17,6 6 4 23 12 E 1016,7 75 60 0,0
24.06.2019 13:00:00 28,0 15,7 35,6 31,3 23,1 17,6 9 5 18 10 ESE 1016,8 55 60 0,0
24.06.2019 12:00:00 26,5 16,0 34,0 29,2 22,5 17,6 9 5 21 11 ESE 1017,2 68 60 0,0
24.06.2019 11:00:00 25,1 16,1 31,7 26,9 22,2 17,5 11 6 22 12 E 1017,5 47 60 0,0
24.06.2019 10:00:00 23,5 16,2 29,6 24,5 22,0 17,5 13 7 23 12 NE 1017,8 75 60 0,0
24.06.2019 09:00:00 21,8 16,3 27,7 22,4 22,0 17,5 13 7 24 13 ENE 1018,0 44 60 0,0
24.06.2019 08:00:00 19,9 15,9 24,2 20,8 22,1 17,6 13 7 19 11 NE 1018,1 47 60 0,0
24.06.2019 07:00:00 18,6 15,5 19,9 20,3 22,4 17,6 13 7 17 9 NE 1018,2 41 54 0,0
24.06.2019 06:00:00 17,8 15,1 16,3 20,6 22,7 17,6 14 8 16 9 NE 1018,3 37 0 0,0
24.06.2019 05:00:00 18,4 15,1 16,3 21,1 22,9 17,6 12 7 17 9 NE 1018,0 48 0 0,0
24.06.2019 04:00:00 18,9 15,2 16,9 21,5 23,2 17,6 11 6 21 11 NE 1017,8 46 0 0,0
24.06.2019 03:00:00 19,4 15,1 17,6 22,0 23,5 17,6 12 7 21 11 NE 1018,0 57 0 0,0
24.06.2019 02:00:00 20,2 15,2 18,2 22,6 23,8 17,6 11 6 21 11 ENE 1017,9 51 0 0,0
24.06.2019 01:00:00 20,7 15,3 19,2 23,2 24,0 17,5 11 6 20 11 ENE 1018,0 59 0 0,0
24.06.2019 00:00:00 20,8 15,2 19,0 23,9 24,3 17,5 10 5 16 9 ENE 1017,7 60 0 0,0
23.06.2019 23:00:00 21,6 15,1 19,7 24,8 24,5 17,5 10 5 19 11 ENE 1017,2 58 0 0,0
23.06.2019 22:00:00 22,5 14,7 20,9 26,0 24,7 17,5 11 6 19 11 ENE 1016,8 35 0 0,0
23.06.2019 21:00:00 23,4 14,7 22,7 27,4 24,7 17,5 9 5 26 14 E 1016,3 71 15 0,0
23.06.2019 20:00:00 25,0 14,2 26,6 28,9 24,6 17,5 11 6 30 16 E 1015,9 66 60 0,0
23.06.2019 19:00:00 25,3 14,2 29,0 29,7 24,4 17,5 14 8 32 18 E 1015,8 75 49 0,0
23.06.2019 18:00:00 25,2 13,7 28,9 30,4 24,0 17,5 16 9 33 18 E 1015,8 52 54 0,0
23.06.2019 17:00:00 25,3 14,6 30,2 30,9 23,5 17,5 14 7 34 18 ESE 1016,4 65 48 0,0
23.06.2019 16:00:00 24,9 14,1 28,9 30,9 22,9 17,5 19 10 37 20 E 1016,3 62 41 0,0
23.06.2019 15:00:00 25,5 14,5 33,0 30,6 22,3 17,5 17 9 38 20 E 1016,4 50 50 0,0
23.06.2019 14:00:00 24,9 13,5 31,2 29,8 21,6 17,5 14 8 37 20 E 1016,4 66 49 0,0
23.06.2019 13:00:00 24,4 14,3 32,9 28,0 21,0 17,5 15 8 36 19 ENE 1016,8 65 53 0,0
23.06.2019 12:00:00 22,2 14,2 28,4 26,2 20,5 17,5 16 8 36 19 ENE 1017,1 63 42 0,0
23.06.2019 11:00:00 21,0 14,3 27,0 24,4 20,0 17,5 17 9 28 15 NE 1017,3 44 54 0,0
23.06.2019 10:00:00 20,6 15,0 28,2 22,0 19,8 17,5 10 6 22 12 ENE 1017,5 45 60 0,0
23.06.2019 09:00:00 18,0 13,7 24,7 19,5 19,8 17,5 12 6 21 11 NE 1018,0 42 60 0,0
23.06.2019 08:00:00 16,7 13,1 20,2 17,9 19,9 17,5 16 9 23 12 NE 1017,9 52 60 0,0
23.06.2019 07:00:00 15,5 13,1 15,9 17,4 20,1 17,5 14 8 17 9 NNE 1018,1 31 57 0,0
23.06.2019 06:00:00 14,7 12,7 12,8 17,5 20,4 17,5 10 5 15 8 NNE 1018,0 46 0 0,0
23.06.2019 05:00:00 14,6 13,1 13,1 17,9 20,6 17,5 13 7 15 8 NE 1017,8 24 0 0,0
23.06.2019 04:00:00 14,7 13,6 13,2 18,2 20,8 17,5 12 6 16 8 NNE 1017,8 33 0 0,0
23.06.2019 03:00:00 15,2 13,9 13,7 18,6 21,0 17,5 12 7 16 8 NE 1018,0 33 0 0,0
23.06.2019 02:00:00 15,8 14,3 13,9 19,1 21,2 17,5 10 5 14 8 NE 1018,1 37 0 0,0
23.06.2019 01:00:00 16,0 14,6 14,6 19,7 21,4 17,5 11 6 20 11 NE 1018,2 35 0 0,0
23.06.2019 00:00:00 17,0 15,2 15,4 20,3 21,6 17,4 11 6 16 8 NE 1017,8 37 0 0,0
22.06.2019 23:00:00 18,5 14,7 17,0 21,0 21,7 17,4 5 3 32 17 E 1017,3 53 0 0,0
22.06.2019 22:00:00 19,0 14,8 18,6 21,4 21,8 17,4 27 15 41 22 NE 1016,9 47 0 0,0
22.06.2019 21:00:00 19,4 12,6 19,0 22,1 21,9 17,4 15 8 25 14 NNW 1016,1 63 0 0,0
22.06.2019 20:00:00 20,1 12,3 20,4 22,9 21,8 17,4 13 7 20 11 NW 1016,5 61 0 0,0
22.06.2019 19:00:00 20,8 12,7 22,2 23,4 21,7 17,4 9 5 18 10 NW 1016,2 31 0 0,0
22.06.2019 18:00:00 21,0 12,8 23,1 23,1 21,6 17,4 9 5 21 11 NW 1016,3 60 0 0,0
22.06.2019 17:00:00 20,3 13,4 22,6 22,4 21,5 17,4 11 6 21 11 NNW 1016,7 75 0 0,0
22.06.2019 16:00:00 19,4 13,6 21,1 22,3 21,4 17,4 11 6 20 11 NNW 1017,3 51 0 0,0
22.06.2019 15:00:00 19,1 14,8 21,7 22,4 21,3 17,3 11 6 18 10 NNW 1017,5 43 0 0,2
22.06.2019 14:00:00 19,8 13,8 23,0 21,6 21,3 17,3 7 4 16 8 NNE 1018,0 55 0 0,0
22.06.2019 13:00:00 17,4 12,4 18,4 21,4 21,3 17,3 12 7 21 12 NNE 1018,3 49 0 0,0
22.06.2019 12:00:00 16,8 11,7 19,2 21,2 21,3 17,3 14 8 19 11 NNE 1018,5 44 0 0,0
22.06.2019 11:00:00 16,4 10,3 18,8 20,7 21,3 17,3 13 7 22 12 NE 1018,7 46 0 0,0
22.06.2019 10:00:00 15,9 9,7 18,0 19,8 21,4 17,3 18 10 28 15 NE 1018,7 53 0 0,0
22.06.2019 09:00:00 15,1 8,7 15,4 19,6 21,6 17,3 22 12 31 17 NE 1018,6 57 0 0,0
22.06.2019 08:00:00 14,6 8,0 15,5 19,4 21,8 17,3 19 11 27 14 NNE 1018,7 62 0 0,0
22.06.2019 07:00:00 14,2 7,4 14,5 19,2 22,1 17,3 20 11 29 16 NE 1019,0 74 0 0,0
22.06.2019 06:00:00 14,2 7,2 14,1 19,3 22,4 17,3 21 11 28 15 NNE 1019,0 60 0 0,0
22.06.2019 05:00:00 13,7 6,9 12,8 19,5 22,7 17,3 19 10 29 15 NNE 1019,4 68 0 0,0
22.06.2019 04:00:00 13,4 7,1 12,4 20,0 23,1 17,3 19 10 27 14 NNE 1019,7 75 0 0,0
22.06.2019 03:00:00 14,1 7,2 12,9 20,6 23,5 17,2 20 11 28 15 NNE 1019,7 62 0 0,0
22.06.2019 02:00:00 14,9 7,6 14,4 21,3 23,9 17,2 18 10 29 16 NNE 1020,1 60 0 0,0
22.06.2019 01:00:00 15,6 7,5 14,9 22,0 24,3 17,2 21 11 34 18 NNE 1020,1 59 0 0,0
22.06.2019 00:00:00 16,1 6,9 14,6 22,8 24,7 17,2 18 10 32 17 NNE 1019,9 60 0 0,0
21.06.2019 23:00:00 16,7 6,5 14,4 23,9 25,1 17,2 15 8 23 12 N 1019,7 69 0 0,0
21.06.2019 22:00:00 17,2 6,8 14,9 25,5 25,3 17,2 14 7 22 12 N 1019,3 53 19 0,0
21.06.2019 21:00:00 18,4 7,1 17,1 27,4 25,4 17,2 11 6 17 9 NNW 1018,6 75 60 0,0
21.06.2019 20:00:00 20,2 5,7 23,6 29,3 25,4 17,2 9 5 20 11 N 1018,0 55 60 0,0
21.06.2019 19:00:00 21,2 6,5 25,6 30,8 25,1 17,2 9 5 20 11 NW 1018,0 75 60 0,0
21.06.2019 18:00:00 21,5 5,9 27,8 31,7 24,7 17,1 9 5 24 13 NW 1017,9 67 60 0,0
21.06.2019 17:00:00 21,8 6,7 29,5 32,2 24,2 17,1 11 6 20 11 W 1018,1 72 60 0,0
21.06.2019 16:00:00 21,8 6,5 30,5 32,1 23,6 17,1 11 6 21 11 W 1018,3 63 60 0,0
21.06.2019 15:00:00 21,6 7,2 30,2 31,3 22,9 17,1 9 5 21 12 WNW 1018,5 75 60 0,0
21.06.2019 14:00:00 20,8 7,2 30,8 30,0 22,3 17,1 11 6 27 15 NW 1018,7 75 51 0,0
21.06.2019 13:00:00 20,2 6,5 29,7 28,8 21,7 17,1 9 5 24 13 W 1019,0 75 56 0,0
21.06.2019 12:00:00 19,5 6,7 29,7 26,8 21,2 17,1 9 5 18 10 NW 1019,1 75 59 0,0

tt = Température de l'air
td = dewpoint
tt 5cm = Température de l'air 5cm
tt -5cm = Température de l'air -5cm
tt -20cm = Température de l'air -20cm
tt -100cm = Température de l'air -100cm
ff = Vitesse du vent
fx = gusts
dd = Direction du vent
ppp = reduced air pressure
vv = visibility
sd = Ensoleillement
rr = Quantités de précipitations

stations d'obs. à proximité